Location: Barrialito
(9.8982°N, 67.7750°W)
Time: 23:50:15
(UTC+00:00)

Cosmos 962 Rocket - Pass Details

Date: 18 April 2024
Orbit: 951 x 998 km, 82.9° (Epoch: 24 May)

Event Time Altitude Azimuth Distance (km) Brightness Sun altitude
Rises 23:39:25 0° 357° (N) 3,698 7.8 -14.7°
Reaches altitude 10° 23:41:56 10° 358° (N) 2,753 7.1 -15.3°
Maximum altitude 23:48:16 84° 87° (E) 1,005 4.5 -16.8°
Drops below altitude 10° 23:54:37 10° 175° (S) 2,758 6.7 -18.3°
Sets 23:57:09 0° 175° (S) 3,705 7.3 -18.9°
